Content
SEND FEEDBACK

Daily
Averages
Monthly
Summary
Canada

BIBLE HILL, NOVA SCOTIA


Home > North America > Canada > Nova Scotia
Elevation: 131 feet     Latitude: 45 22N     Longitude: 063 16W

WEATHER
 
SELECT A DAY
Number of Records: 101,252;   Date Range: 6/19/04 - 12/17/14
 
SHARE

PRINT THIS DATA

[ ← Previous Day ]
WEATHER ALMANAC - FEBRUARY 8, 2014
[ Next Day → ]
[ °C ]   °F
Weather ElementAverageHighLow
Temperature15 °F23.2 °F (4:00 pm)1.8 °F (11:00 pm)
Dewpoint9 °F14.9 °F (2:00 pm)-0.9 °F (11:00 pm)
Humidity76.6 %92 % (6:00 am)54 % (8:00 pm)
Barometer30.07 in30.13 in (11:00 pm)30.01 in (3:00 pm)
Wind Speed8 mph20.7 mph (1:00 pm)
Wind Gust27.6 mph (1:00 pm)
Weather ElementAverage
Wind DirectionS (174.4 °)

Weather ElementTotal
Precipitation---
Heating Degree Days52.5 (Base 65)
Averaged from 27 records on February 8, 2014
WEATHER CONDITIONS BREAKOUT
WIND DIRECTION BREAKOUT
WEATHER BY HOUR - FEBRUARY 8, 2014
[ °C ]   °F
Local TimeTemperatureDewpointHumidityBarometerVisibilityWind DirectionWind SpeedGust SpeedPrecipitationEventsConditions
1:00 AM8.8 °F6.4 °F90 %30.08 inNNE (30°)2.3 mph
2:00 AM11.0 °F8.0 °F79 %30.07 inNE (40°)2.3 mph
2:00 AM10.8 °F7.5 °F87 %30.07 inNE (40°)2.3 mph
3:00 AM12.4 °F9.3 °F88 %30.07 inNE (50°)3.5 mph
4:00 AM13.8 °F11.5 °F90 %30.07 inESE (110°)2.3 mph
5:00 AM12.6 °F10.4 °F91 %30.07 inEast (90°)1.2 mph
6:00 AM10.9 °F9.0 °F92 %30.07 inNNE (20°)2.3 mph
7:00 AM11.3 °F9.3 °F92 %30.07 inENE (60°)1.2 mph
8:00 AM11.0 °F9.0 °F86 %30.09 inNE (40°)2.3 mph
8:00 AM10.8 °F8.8 °F92 %30.09 inNE (40°)2.3 mph
9:00 AM10.0 °F7.2 °F88 %30.09 inCalm
10:00 AM19.0 °F9.3 °F66 %30.09 inWSW (250°)8.1 mph
11:00 AM21.2 °F11.7 °F67 %30.08 inWest (270°)16.1 mph
12:00 PM21.7 °F11.5 °F65 %30.06 inWest (270°)19.6 mph26.5 mph
1:00 PM21.2 °F10.2 °F63 %30.04 inWest (260°)20.7 mph27.6 mph
2:00 PM22.0 °F13.0 °F57 %30.02 inWest (270°)15.0 mph
2:00 PM21.6 °F14.9 °F76 %30.02 inWest (270°)15.0 mph20.7 mph
3:00 PM22.6 °F13.8 °F69 %30.01 inWest (270°)19.6 mph26.5 mph
4:00 PM23.2 °F13.8 °F67 %30.02 inWest (260°)19.6 mph26.5 mph
5:00 PM21.6 °F11.3 °F65 %30.03 inWest (270°)18.4 mph26.5 mph
6:00 PM20.5 °F9.9 °F64 %30.08 inWest (280°)10.4 mph
7:00 PM18.5 °F7.7 °F63 %30.11 inWNW (290°)9.2 mph
8:00 PM16.0 °F7.0 °F54 %30.12 inNNW (330°)6.9 mph
8:00 PM16.2 °F6.6 °F66 %30.12 inNNW (330°)6.9 mph
9:00 PM10.0 °F3.2 °F74 %30.12 inEast (90°)2.3 mph
10:00 PM5.0 °F2.5 °F89 %30.12 inNNW (340°)1.2 mph
11:00 PM1.8 °F-0.9 °F88 %30.13 inSE (140°)4.6 mph
Hourly data recorded from CZDB, located miles away from Bible Hill, Nova Scotia







STORIES FROM OUR PARTNERS